Location: 22
(39.7117°N, 89.5929°W)
Time: 16:51:59
(UTC-05:00)

Tiros 1 despin weight - Pass Details

Date: 11 August 2024
Orbit: 573 x 617 km, 48.2° (Epoch: 17 September)

Event Time Altitude Azimuth Distance (km) Brightness Sun altitude
Rises 21:24:16 0° 299° (WNW) 2,788 ? -15.4°
Reaches altitude 10° 21:26:44 10° 310° (NW) 1,883 ? -15.8°
Maximum altitude 21:30:36 32° 14° (NNE) 992 ? -16.4°
Enters shadow 21:33:25 16° 70° (ENE) 1,522 ? -16.8°
